COSMOS 2298 DEB

Satellite information

Favourite Embed

Satellite Type and Status

DEBRISIN ORBIT

Key statistics

Satellite COSMOS 2298 DEB at a glance.

Uptime

11158

Days in orbit

Revolutions

≈ 14.4

Per day

Orbit

LEO

Low Earth Orbit

Inclination

74.0

Latest

Satellite identification and parameters

Extended collection of information and parameters for COSMOS 2298 DEB.

Object identification

Identified? True

Debris? True

Object name: COSMOS 2298 DEB

International designator: 1994-083C

Object number (NORAD): 23433

Object ID (CCSDS): 23433

Country: COMMONWEALTH OF INDEPENDENT STATES (CIS)

Current information (Y/N): Y

RCS size: SMALL

Orbital parameters

Period: 99.717 minutes

Inclination: 74.0047 deg

SMA: 7123.164 km

Apoapsis: 753.181 km

Periapsis: 736.877 km

RAAN: 215.4971 deg

Eccentricy: 0.0011444

Argument of periapsis: 256.2123 deg

Mean anomaly: 254.4848 deg

Mean motion: 14.44087001 rev/day

Mean motion (dot): 0.00000671 rev/day2

B* drag term: 0.00020374 1/REarth

Two-line elements (TLE)

Creation date: July 6, 2025, 6:05 p.m.

Reference frame: TEME

Reference center: EARTH

Epoch: July 6, 2025, 12:05 p.m. UTC

TLE line 0: 0 COSMOS 2298 DEB

TLE line 1: 1 23433U 94083C 25187.50361317 .00000671 00000-0 20374-3 0 9991

TLE line 2: 2 23433 74.0047 215.4971 0011444 256.2123 254.4848 14.44087001600182

Live tracking on map

Real-time ground track for satellite COSMOS 2298 DEB.

In-orbit conjunctions

A list of the most updated potential collisions computed for object COSMOS 2298 DEB.

Target Orbit TCA Probability of collision Miss distance Type
NOAA 16 DEB SSO 2024-11-11 11:48:34 0.0001839421 638.0 (m) DEBRIS
IRIDIUM 69 LEO 2024-09-11 03:53:33 0.007745781 36.0 (m) PAYLOAD

Associated space launch

Military communications satellite

COSMOS 2298 DEB was lifted into orbit during the mission ‘Kosmos-3M | Strela-2M 52’, on board a Kosmos-3M space rocket.

The launch took place on Dec. 20, 1994, 5:11 a.m. from 132/1 (132L).

For more information about the launch, click the button.

Launch to space Kosmos-3M | Strela-2M 52
Kosmos-3M | Strela-2M 52

Agency: N/A

Status: Launch Successful

Launch date: Dec. 20, 1994, 5:11 a.m. UTC

Rocket: Kosmos-3M

Launch pad: 132/1 (132L)

Location: Plesetsk Cosmodrome, Russian Federation

...

Latest news about this satellite

There are no fresh news available about this satellite. Check back as we update our databases every day.


Newsletter sign-up

Weekly statistics, charts and insights to help you stay on top of the space industry.